SP1ZPL-13 Weather Reports


time (UTC)temp
C
wind
direction
speed
KPH
gust
KPH
rain 1hr
cm
rain 24hr
cm
rain mn
cm
humidity
%
barometer
mb
20260507061042 7 19 4.8 11.3 0.00 0.38 0.00 85 1012.5
20260507060019 7 325 6.4 19.3 0.00 0.43 0.00 85 1012.3
20260507055017 7 7 8.0 25.7 0.00 0.46 0.00 87 1012.3
20260507054030 7 8 9.7 24.1 0.00 0.48 0.00 88 1012.2
20260507053027 7 91 6.4 17.7 0.00 0.51 0.00 89 1012.2
20260507052025 6 331 8.0 19.3 0.00 0.53 0.00 90 1012.1
20260507051022 6 206 6.4 19.3 0.00 0.56 0.00 90 1012.0
20260507050020 7 157 8.0 17.7 0.00 0.64 0.00 90 1012.0
20260507045017 7 10 9.7 19.3 0.00 0.66 0.00 89 1011.9
20260507044015 7 5 4.8 19.3 0.00 0.69 0.00 89 1011.6
20260507043028 7 55 4.8 11.3 0.00 0.76 0.00 88 1011.5
20260507042025 7 218 6.4 22.5 0.00 0.76 0.00 88 1011.2
20260507041023 7 25 4.8 11.3 0.00 0.81 0.00 89 1011.3
20260507040040 7 359 6.4 14.5 0.00 0.84 0.00 88 1011.1
20260507035017 7 254 4.8 9.7 0.00 0.86 0.00 88 1011.0
20260507034015 7 22 4.8 11.3 0.00 0.86 0.00 87 1011.0
20260507033048 7 54 3.2 6.4 0.00 0.86 0.00 86 1010.9
20260507032025 7 13 3.2 8.0 0.00 0.86 0.00 86 1010.8
20260507031043 7 16 3.2 6.4 0.00 0.86 0.00 86 1010.7
20260507030020 7 59 4.8 12.9 0.00 0.86 0.00 86 1010.7
20260507025018 7 288 6.4 17.7 0.00 0.86 0.00 86 1010.7
20260507024016 7 323 8.0 17.7 0.00 0.86 0.00 86 1010.7
20260507023028 7 356 8.0 22.5 0.00 0.86 0.00 86 1010.6
20260507022025 7 324 8.0 17.7 0.00 0.86 0.00 87 1010.6
20260507021043 7 33 9.7 20.9 0.00 0.86 0.00 89 1010.6
20260507020021 7 86 3.2 12.9 0.00 0.86 0.00 90 1010.5
20260507015018 7 330 8.0 19.3 0.00 0.86 0.00 90 1010.5
20260507014015 7 331 4.8 17.7 0.00 0.86 0.00 90 1010.4
20260507013028 6 0 8.0 17.7 0.00 0.86 0.00 91 1010.2
20260507012026 6 344 4.8 12.9 0.00 0.86 0.00 91 1010.2
20260507011023 6 94 3.2 6.4 0.00 0.86 0.00 91 1010.1
20260507010021 6 164 4.8 14.5 0.00 0.86 0.00 91 1009.9
20260507005018 7 162 3.2 8.0 0.00 0.86 0.00 91 1009.9
20260507004015 7 93 4.8 17.7 0.00 0.86 0.00 91 1009.9
20260507003028 7 338 3.2 8.0 0.00 0.86 0.00 91 1010.2
20260507002026 7 98 4.8 11.3 0.00 0.86 0.00 90 1010.2
20260507001024 7 26 3.2 8.0 0.00 0.86 0.00 90 1009.9
20260507000022 7 311 3.2 12.9 0.00 0.86 0.00 90 1009.9
20260506235018 7 18 6.4 16.1 0.00 0.86 0.00 91 1009.7
20260506234016 7 335 4.8 8.0 0.00 0.86 0.00 91 1009.6
20260506233028 7 70 3.2 8.0 0.00 0.86 0.00 91 1009.7
20260506232026 7 344 4.8 14.5 0.00 0.86 0.00 90 1009.6
20260506231023 7 39 3.2 9.7 0.00 0.86 0.00 90 1009.5
20260506230021 7 38 3.2 9.7 0.00 0.86 0.00 90 1009.7
20260506225018 7 9 4.8 16.1 0.00 0.86 0.00 90 1009.6
20260506224016 7 337 4.8 11.3 0.00 0.86 0.00 90 1009.7
20260506223049 7 313 4.8 11.3 0.00 0.86 0.00 90 1009.5
20260506222026 7 231 6.4 16.1 0.00 0.86 0.00 90 1009.5
20260506221044 7 318 4.8 20.9 0.00 0.86 0.00 90 1009.7
20260506220021 7 24 8.0 30.6 0.00 0.86 0.00 90 1009.6
20260506215018 7 331 9.7 27.4 0.00 0.86 0.86 91 1009.6
20260506214016 7 334 9.7 25.7 0.00 0.86 0.86 91 1009.6
20260506213029 7 15 4.8 11.3 0.00 0.86 0.86 91 1009.7
20260506212026 7 359 3.2 11.3 0.00 0.86 0.86 91 1009.6
20260506211024 7 359 4.8 14.5 0.00 0.86 0.86 91 1009.2
20260506210021 7 356 8.0 22.5 0.00 0.86 0.86 91 1009.1
20260506205019 7 358 4.8 22.5 0.00 0.86 0.86 90 1009.1
20260506204017 7 4 6.4 14.5 0.00 0.86 0.86 90 1008.9
20260506203029 7 95 4.8 17.7 0.00 0.86 0.86 90 1008.9
20260506202027 7 278 8.0 17.7 0.00 0.86 0.86 90 1008.8
20260506201044 7 349 6.4 22.5 0.00 0.86 0.86 90 1009.0
20260506200022 7 328 6.4 16.1 0.00 0.86 0.86 90 1008.7
20260506195019 7 317 4.8 17.7 0.00 0.86 0.86 90 1008.7
20260506194017 7 357 6.4 12.9 0.00 0.86 0.86 90 1008.7
20260506193050 7 15 3.2 8.0 0.00 0.86 0.86 90 1008.8
20260506192027 7 325 6.4 12.9 0.00 0.86 0.86 85 1008.9
20260506191025 7 304 9.7 20.9 0.00 0.86 0.86 85 1008.7
20260506190022 7 333 6.4 17.7 0.00 0.86 0.86 85 1008.5
20260506185039 7 323 4.8 12.9 0.00 0.86 0.86 84 1008.3
20260506184017 8 0 4.8 16.1 0.00 0.86 0.86 85 1008.4
20260506183030 8 89 8.0 24.1 0.00 0.86 0.86 85 1008.3
20260506182047 9 32 6.4 25.7 0.00 0.86 0.86 86 1008.1
20260506181025 9 354 6.4 12.9 0.00 0.86 0.86 86 1007.9
20260506180022 9 12 3.2 8.0 0.00 0.86 0.86 86 1007.5
20260506175020 10 320 3.2 11.3 0.00 0.86 0.86 87 1007.5
20260506174018 10 78 4.8 8.0 0.00 0.86 0.86 87 1007.6
20260506173015 10 164 6.4 14.5 0.00 0.86 0.86 89 1007.6
20260506172028 10 246 4.8 16.1 0.00 0.86 0.86 90 1007.6
20260506171025 10 293 6.4 14.5 0.00 0.86 0.86 90 1007.4
20260506170023 10 349 3.2 8.0 0.00 0.86 0.86 90 1007.4
20260506165020 10 16 3.2 8.0 0.00 0.86 0.86 90 1007.2
20260506164018 10 305 1.6 8.0 0.00 0.86 0.86 90 1007.0
20260506163015 10 38 1.6 4.8 0.00 0.86 0.86 90 1007.1
20260506162028 10 44 3.2 9.7 0.00 0.86 0.86 89 1007.1
20260506161045 10 36 1.6 4.8 0.00 0.86 0.86 89 1007.1
20260506160023 10 61 1.6 9.7 0.00 0.86 0.86 89 1007.1
20260506155020 10 84 3.2 6.4 0.00 0.86 0.86 89 1007.2
20260506154018 11 63 3.2 6.4 0.00 0.86 0.86 90 1007.1
20260506153015 11 185 3.2 8.0 0.00 0.86 0.86 89 1007.2
20260506152028 11 329 3.2 6.4 0.00 0.86 0.86 90 1007.2
20260506151025 11 99 3.2 6.4 0.00 0.86 0.86 90 1007.1
20260506150023 11 70 1.6 9.7 0.00 0.86 0.86 91 1007.0
20260506145020 11 33 3.2 9.7 0.00 0.86 0.86 91 1006.9
20260506144018 11 110 4.8 8.0 0.00 0.86 0.86 91 1006.8
20260506143015 11 251 3.2 6.4 0.00 0.86 0.86 92 1006.8
20260506142028 11 290 4.8 9.7 0.00 0.86 0.86 93 1006.8
20260506141025 11 1 3.2 6.4 0.00 0.86 0.86 94 1006.7
20260506140043 10 299 3.2 6.4 0.03 0.86 0.86 94 1006.8
20260506135021 10 20 4.8 14.5 0.03 0.86 0.86 95 1006.9
20260506134019 10 54 3.2 6.4 0.03 0.86 0.86 95 1006.9
20260506133016 10 64 1.6 6.4 0.03 0.86 0.86 95 1006.9
20260506132049 10 343 3.2 8.0 0.03 0.86 0.86 95 1006.8
20260506131026 9 315 4.8 12.9 0.03 0.86 0.86 95 1006.8
20260506130023 10 73 4.8 11.3 0.00 0.84 0.84 96 1006.8
20260506125021 10 80 3.2 11.3 0.00 0.84 0.84 96 1006.8
20260506124019 9 30 4.8 9.7 0.00 0.84 0.84 96 1006.8
20260506123016 10 2 3.2 6.4 0.00 0.84 0.84 97 1006.7
20260506122029 10 70 3.2 8.0 0.03 0.84 0.84 97 1006.5
20260506121026 10 8 8.0 20.9 0.03 0.84 0.84 97 1006.3
20260506120044 10 4 4.8 20.9 0.05 0.84 0.84 97 1006.1
20260506115021 10 354 4.8 11.3 0.05 0.84 0.84 97 1006.0
20260506114019 9 24 6.4 17.7 0.05 0.84 0.84 98 1006.1
20260506113016 10 48 3.2 8.0 0.05 0.84 0.84 98 1006.1
20260506112029 10 22 0.0 3.2 0.03 0.81 0.81 98 1006.0
20260506111026 10 309 3.2 6.4 0.05 0.81 0.81 98 1006.0
20260506110024 10 44 3.2 8.0 0.03 0.79 0.79 98 1005.9
20260506105021 10 70 1.6 6.4 0.05 0.79 0.79 98 1005.9
20260506104039 9 79 3.2 11.3 0.05 0.79 0.79 98 1005.8
20260506103017 9 285 6.4 14.5 0.05 0.79 0.79 98 1006.0
20260506102029 9 337 4.8 12.9 0.10 0.79 0.79 98 1005.9
20260506101027 9 358 4.8 12.9 0.05 0.79 0.76 98 1005.9
20260506100024 9 21 6.4 17.7 0.05 0.79 0.76 98 1005.8
20260506095022 9 99 4.8 8.0 0.05 0.76 0.71 98 1005.8
20260506094019 9 357 6.4 22.5 0.05 0.76 0.71 98 1005.7
20260506093017 9 237 4.8 12.9 0.05 0.76 0.71 98 1005.7
20260506092030 9 19 4.8 12.9 0.03 0.71 0.69 99 1005.6
20260506091027 10 65 3.2 12.9 0.03 0.71 0.69 99 1005.4
20260506090025 10 22 4.8 12.9 0.03 0.71 0.69 99 1005.5
20260506085022 10 49 4.8 12.9 0.03 0.69 0.66 99 1005.5
20260506084019 10 348 6.4 12.9 0.05 0.69 0.66 99 1005.3
20260506083017 10 8 4.8 9.7 0.05 0.69 0.66 99 1005.3
20260506082049 10 52 8.0 17.7 0.05 0.69 0.66 99 1005.4
20260506081028 10 30 8.0 17.7 0.05 0.71 0.66 99 1005.5
20260506073017 10 26 3.2 9.7 0.10 0.71 0.61 99 1005.5
20260506072050 10 15 8.0 16.1 0.13 0.76 0.61 99 1005.3
20260506071027 10 327 6.4 14.5 0.13 0.81 0.61 99 1005.2
20260506062015 9 230 4.8 12.9 0.15 0.81 0.48 97 1005.2